Flag for Thailand Weather past 2 weeks in Phuket, Thailand

Now
82 °F

Partly cloudy.


Feels Like: 89 °F
Forecast: 81 / 83 °F
Wind: 14 mph from West

Location: Phuket Airport

Current Time: Sep 17, 2014 at 2:40:35 AM

Latest Report: Sep 17, 2014 at 2:00 AM


Visibility: 5 mi

Pressure: 29.74 "Hg

Humidity: 79%

Dew point: 75 °F

Location of PhuketLocation

Historic Weather in Phuket — Graph

°F

Phuket temperature yesterday

Maximum temperature yesterday: 82 °F (at 12:00 AM)
Minimum temperature yesterday: 73 °F (at 9:00 AM)
Average temperature yesterday: 80 °F

Past Weeks' High & Low Weather Summary

 TemperatureHumidityPressure
High90 °F (Sep 3, 12:00 PM)94% (Sep 3, 7:00 AM)29.95 "Hg (Sep 3, 7:00 AM)
Low73 °F (Sep 8, 11:00 PM)55% (Sep 3, 11:30 AM)29.71 "Hg (Sep 16, 3:00 PM)
Average81 °F77%29.85 "Hg
* Reported Sep 2 1:00 AM — Sep 17 1:30 AM, Phuket, Weather by CustomWeather, © 2014

Note: Actual official high and low records may vary slightly from our data, if they occured in-between our weather recording intervals... More about our weather records

Advertising

Phuket weather history for previous 24 hours

 ConditionsComfort  
Time TempWeatherWind HumidityBarometerVisibility
1:30 AM
Sep 17
81 °FPartly cloudy.12 mph84%29.77 "Hg5 mi
1:00 AM81 °FPartly cloudy.12 mph84%29.77 "Hg5 mi
12:30 AM81 °FPartly cloudy.9 mph84%29.77 "Hg5 mi
12:00 AM81 °FPartly cloudy.12 mph84%29.80 "Hg5 mi
11:30 PM
Sep 16
81 °FPartly cloudy.9 mph79%29.80 "Hg5 mi
11:00 PM82 °FPartly cloudy.14 mph79%29.80 "Hg5 mi
10:30 PM81 °FPartly cloudy.14 mph84%29.80 "Hg5 mi
10:00 PM81 °FPartly cloudy.12 mph84%29.80 "Hg5 mi
9:30 PM81 °FPartly cloudy.10 mph84%29.77 "Hg5 mi
9:00 PM81 °FPartly cloudy.12 mph79%29.77 "Hg5 mi
8:30 PM79 °FPartly cloudy.9 mph84%29.77 "Hg5 mi
8:00 PM79 °FLight rain. Partly cloudy.7 mph84%29.74 "Hg4 mi
7:30 PM81 °FPartly cloudy.12 mph84%29.74 "HgN/A
7:00 PM81 °FPartly cloudy.8 mph84%29.74 "HgN/A
6:00 PM81 °FBroken clouds.12 mph84%29.71 "HgN/A
5:30 PM82 °FBroken clouds.12 mph79%29.71 "HgN/A
5:00 PM82 °FBroken clouds.10 mph74%29.71 "HgN/A
4:30 PM82 °FBroken clouds.14 mph74%29.71 "HgN/A
4:00 PM81 °FBroken clouds.17 mph79%29.71 "Hg5 mi
3:00 PM81 °FLight rain. Cloudy.14 mph84%29.71 "Hg3 mi
2:00 PM81 °FCloudy.14 mph84%29.74 "Hg5 mi
1:30 PM81 °FCloudy.14 mph79%29.74 "Hg5 mi
1:00 PM81 °FCloudy.17 mph79%29.74 "Hg5 mi
12:30 PM81 °FLight rain. Cloudy.20 mph84%29.77 "Hg4 mi
12:00 PM81 °FLight rain. Cloudy.25 mph79%29.80 "Hg3 mi
11:30 AM82 °FBroken clouds.22 mph79%29.80 "Hg5 mi
11:00 AM82 °FBroken clouds.18 mph79%29.80 "Hg5 mi
10:30 AM81 °FLight rain. Broken clouds.18 mph79%29.83 "Hg4 mi
9:30 AM75 °FRain. Broken clouds.21 mph89%29.86 "Hg3 mi
9:00 AM73 °FHeavy rain. Broken clouds.35 mph94%29.86 "Hg1 mi
8:00 AM79 °FRain. Broken clouds.24 mph84%29.80 "Hg4 mi
7:30 AM77 °FRain. Broken clouds.23 mph89%29.80 "Hg3 mi
7:00 AM75 °FRain. Broken clouds.30 mph89%29.80 "Hg2 mi
6:30 AM75 °FHeavy rain. Broken clouds.29 mph94%29.77 "Hg1 mi
6:00 AM79 °FPartly cloudy.14 mph89%29.74 "Hg4 mi
5:30 AM79 °FPartly cloudy.12 mph84%29.74 "Hg5 mi
5:00 AM79 °FLight rain. Partly cloudy.8 mph84%29.74 "Hg4 mi
4:30 AM77 °FLight rain. Partly cloudy.16 mph89%29.74 "Hg4 mi
4:00 AM77 °FLight rain. Partly cloudy.18 mph83%29.74 "Hg4 mi
3:30 AM77 °FRain. Partly cloudy.22 mph89%29.77 "Hg3 mi
3:00 AM75 °FHeavy rain. Overcast.35 mph89%29.77 "Hg1 mi
2:30 AM77 °FHeavy rain. Overcast.16 mph89%29.77 "Hg1 mi
2:00 AM81 °FPartly cloudy.8 mph79%29.77 "Hg5 mi
Weather by CustomWeather, © 2014

See weather overviewHow to use our weather pages